Weather History for KNYG - December, 2012

Change the Weather History Date:

Monday, December 10, 2012

  Actual Average Record
Temperature  
Mean Temperature 57 °F -  
Max Temperature 66 °F 47 °F 66 °F (2008)
Min Temperature 48 °F 31 °F 21 °F (2005)
Degree Days  
Heating Degree Days 8    
Growing Degree Days 7 (Base 50)    
Moisture  
Dew Point 52 °F    
Average Humidity 88    
Maximum Humidity 97    
Minimum Humidity 70    
Precipitation  
Precipitation 0.00 in - - ()
Sea Level Pressure  
Sea Level Pressure 29.74 in    
Wind  
Wind Speed 5 mph (SW)    
Max Wind Speed 12 mph    
Max Gust Speed 22 mph    
Visibility 4 miles    
Events Fog    
Averages and records for this station are not official NWS values.
T = Trace of Precipitation, MM = Missing Value Source: NWS Daily Summary

Daily Weather History Graph

Daily Weather History Graph

Search for Another Location

Airport or City:

Trip Planner

Search our weather history database for the weather conditions in past years. The results will help you decide how hot, cold, wet, or windy it might be!

Date:

Astronomy

Dec. 10, 2012 Rise Set
Actual Time 7:16 AM EST 4:48 PM EST
Civil Twilight 6:46 AM EST 5:18 PM EST
Nautical Twilight 6:13 AM EST 5:51 PM EST
Astronomical Twilight 5:41 AM EST 6:23 PM EST
Moon 3:58 AM EST (12/10) 2:34 PM EST (12/10)
Length of Visible Light 10h 31m
Length of Day
9h 32m
Waning Crescent, 10% of the Moon is Illuminated
Dec 10
Waning Crescent
Dec 13
New
Dec 20
First Quarter
Dec 28
Full
Jan 4
Last Quarter

Hourly Weather History & Observations

Time (EST) Temp. Dew Point Humidity Pressure Visibility Wind Dir Wind Speed Gust Speed Precip Events Conditions
12:56 AM 48.9 °F 46.0 °F 90% 29.97 in 0.2 mi Calm Calm - N/A Fog Fog
1:56 AM 48.0 °F 46.0 °F 93% 29.94 in 0.2 mi South 3.5 mph - N/A Fog Fog
2:56 AM 48.0 °F 46.9 °F 96% 29.92 in 0.5 mi SSW 4.6 mph - N/A Fog Fog
3:56 AM 48.0 °F 46.0 °F 93% 29.89 in 0.5 mi SSW 5.8 mph - N/A Fog Fog
4:56 AM 48.9 °F 46.9 °F 93% 29.87 in 0.5 mi SW 4.6 mph - N/A Fog Fog
5:56 AM 48.9 °F 46.9 °F 93% 29.86 in 0.8 mi SSW 6.9 mph - N/A   Mist
6:56 AM 48.9 °F 46.9 °F 93% 29.84 in 0.5 mi SSW 6.9 mph - N/A Fog Fog
7:56 AM 50.0 °F 48.0 °F 93% 29.82 in 0.2 mi SW 6.9 mph - N/A Fog Fog
8:56 AM 50.0 °F 48.9 °F 96% 29.81 in 0.2 mi SSW 5.8 mph - N/A Fog Fog
9:56 AM 51.1 °F 48.9 °F 92% 29.80 in 0.2 mi SW 6.9 mph - N/A Fog Fog
10:56 AM 53.1 °F 52.0 °F 96% 29.77 in 0.1 mi SW 5.8 mph - N/A Fog Fog
11:56 AM 54.0 °F 53.1 °F 97% 29.72 in 0.2 mi SSE 5.8 mph - N/A Fog Fog
12:56 PM 54.0 °F 53.1 °F 97% 29.68 in 0.2 mi South 6.9 mph - N/A Fog Fog
1:09 PM 55.4 °F 53.6 °F 94% 29.66 in 0.2 mi South 6.9 mph - N/A Fog Fog
1:56 PM 57.9 °F 55.9 °F 93% 29.64 in 7.0 mi SSW 9.2 mph - N/A   Mostly Cloudy
2:56 PM 66.9 °F 57.0 °F 70% 29.63 in 10.0 mi WSW 6.9 mph - N/A   Overcast
3:56 PM 66.0 °F 55.9 °F 70% 29.63 in 10.0 mi WSW 8.1 mph 17.3 mph N/A   Overcast
4:56 PM 64.9 °F 55.9 °F 73% 29.64 in 10.0 mi WSW 11.5 mph 21.9 mph N/A   Overcast
5:56 PM 63.0 °F 55.9 °F 78% 29.64 in 10.0 mi WSW 9.2 mph - N/A   Mostly Cloudy
6:38 PM 62.6 °F 57.2 °F 82% 29.63 in 10.0 mi WSW 6.9 mph - N/A   Mostly Cloudy
6:56 PM 62.1 °F 57.0 °F 84% 29.64 in 10.0 mi WSW 8.1 mph - N/A   Mostly Cloudy
7:56 PM 54.0 °F 52.0 °F 93% 29.62 in 4.0 mi SSW 8.1 mph - N/A   Overcast
8:56 PM 61.0 °F 55.0 °F 81% 29.63 in 10.0 mi WSW 5.8 mph - N/A   Mostly Cloudy
9:56 PM 62.1 °F 55.9 °F 80% 29.62 in 10.0 mi WSW 5.8 mph - N/A   Scattered Clouds
10:56 PM 55.9 °F 53.1 °F 90% 29.63 in 10.0 mi SW 4.6 mph - N/A   Scattered Clouds
11:56 PM 62.1 °F 55.9 °F 80% 29.65 in 10.0 mi West 3.5 mph - N/A   Overcast